Weather History for KCMI - October, 2012

Change the Weather History Date:

Sunday, October 14, 2012

  Actual Average Record
Temperature  
Mean Temperature 62 °F 54 °F  
Max Temperature 74 °F 66 °F 82 °F (1996)
Min Temperature 49 °F 42 °F 25 °F (2006)
Degree Days  
Heating Degree Days 3 11  
Month to date heating degree days 178 131  
Since 1 July heating degree days 267 223  
Cooling Degree Days 0 0  
Month to date cooling degree days 2 14  
Year to date cooling degree days 1286 939  
Growing Degree Days 12 (Base 50)    
Moisture  
Dew Point 58 °F    
Average Humidity 77    
Maximum Humidity 93    
Minimum Humidity 61    
Precipitation  
Precipitation 0.04 in 0.10 in 0.64 in (2003)
Month to date precipitation 1.63 1.40  
Year to date precipitation 22.80 31.96  
Sea Level Pressure  
Sea Level Pressure 29.71 in    
Wind  
Wind Speed 24 mph (SW)    
Max Wind Speed 37 mph    
Max Gust Speed 47 mph    
Visibility 9 miles    
Events Rain    
T = Trace of Precipitation, MM = Missing Value Source: NWS Daily Summary

Daily Weather History Graph

Daily Weather History Graph

Search for Another Location

Airport or City:

Trip Planner

Search our weather history database for the weather conditions in past years. The results will help you decide how hot, cold, wet, or windy it might be!

Date:

Astronomy

Oct. 14, 2012 Rise Set
Actual Time 7:03 AM CDT 6:14 PM CDT
Civil Twilight 6:35 AM CDT 6:41 PM CDT
Nautical Twilight 6:04 AM CDT 7:12 PM CDT
Astronomical Twilight 5:32 AM CDT 7:44 PM CDT
Moon 6:01 AM CDT (10/14) 5:34 PM CDT (10/14)
Length of Visible Light 12h 05m
Length of Day
11h 11m
Waning Crescent, 1% of the Moon is Illuminated
Oct 14
Waning Crescent
Oct 15
New
Oct 21
First Quarter
Oct 29
Full
Nov 6
Last Quarter

Hourly Weather History & Observations

Time (CDT) Temp. Dew Point Humidity Pressure Visibility Wind Dir Wind Speed Gust Speed Precip Events Conditions
12:53 AM 68.0 °F 61.0 °F 78% 29.82 in 10.0 mi South 19.6 mph - 0.01 in   Overcast
1:53 AM 68.0 °F 61.0 °F 78% 29.80 in 10.0 mi South 21.9 mph 29.9 mph N/A   Overcast
2:53 AM 66.9 °F 61.0 °F 81% 29.77 in 10.0 mi South 20.7 mph - N/A   Mostly Cloudy
3:53 AM 66.9 °F 61.0 °F 81% 29.74 in 10.0 mi South 18.4 mph 26.5 mph 0.00 in Rain Light Rain
4:32 AM 66.2 °F 62.6 °F 88% 29.74 in 8.0 mi South 31.1 mph 36.8 mph 0.01 in Rain Light Rain
4:53 AM 66.0 °F 62.1 °F 87% 29.72 in 10.0 mi South 35.7 mph 43.7 mph 0.01 in   Overcast
5:11 AM 64.4 °F 62.6 °F 94% 29.74 in 10.0 mi South 31.1 mph 39.1 mph N/A   Overcast
5:53 AM 64.0 °F 62.1 °F 93% 29.71 in 10.0 mi South 20.7 mph - 0.00 in   Overcast
6:53 AM 64.0 °F 62.1 °F 93% 29.65 in 9.0 mi SSE 21.9 mph - N/A   Mostly Cloudy
7:31 AM 64.4 °F 62.6 °F 94% 29.66 in 9.0 mi South 23.0 mph 31.1 mph 0.00 in   Mostly Cloudy
7:53 AM 64.9 °F 62.1 °F 90% 29.65 in 8.0 mi South 20.7 mph 33.4 mph 0.00 in   Mostly Cloudy
8:53 AM 66.0 °F 62.1 °F 87% 29.66 in 10.0 mi South 26.5 mph 34.5 mph 0.00 in   Mostly Cloudy
9:27 AM 68.0 °F 62.6 °F 83% 29.67 in 10.0 mi South 26.5 mph 35.7 mph N/A   Mostly Cloudy
9:48 AM 66.2 °F 62.6 °F 88% 29.67 in 10.0 mi SSW 27.6 mph 36.8 mph N/A   Overcast
9:53 AM 66.9 °F 62.1 °F 84% 29.66 in 10.0 mi South 31.1 mph 36.8 mph N/A   Overcast
10:05 AM 68.0 °F 62.6 °F 83% 29.67 in 10.0 mi SSW 26.5 mph 36.8 mph N/A   Overcast
10:53 AM 68.0 °F 61.0 °F 78% 29.65 in 10.0 mi SSW 28.8 mph 41.4 mph N/A   Mostly Cloudy
11:53 AM 69.1 °F 60.1 °F 73% 29.66 in 10.0 mi SSW 29.9 mph 40.3 mph N/A   Overcast
12:53 PM 72.0 °F 60.1 °F 66% 29.62 in 10.0 mi SSW 28.8 mph 39.1 mph N/A   Scattered Clouds
1:53 PM 72.0 °F 59.0 °F 64% 29.58 in 10.0 mi SSW 28.8 mph 39.1 mph N/A   Mostly Cloudy
2:53 PM 71.1 °F 57.9 °F 63% 29.57 in 10.0 mi SSW 29.9 mph 40.3 mph N/A   Mostly Cloudy
3:53 PM 63.0 °F 59.0 °F 87% 29.62 in 8.0 mi WSW 26.5 mph 40.3 mph 0.01 in Rain Light Rain
4:21 PM 62.6 °F 60.8 °F 94% 29.65 in 2.0 mi West 23.0 mph 36.8 mph 0.02 in Rain Rain
4:26 PM 62.6 °F 60.8 °F 94% 29.65 in 3.0 mi West 21.9 mph 29.9 mph 0.02 in Rain Light Rain
4:33 PM 62.6 °F 59.0 °F 88% 29.65 in 10.0 mi West 25.3 mph 38.0 mph 0.02 in   Overcast
4:53 PM 62.1 °F 57.0 °F 84% 29.65 in 10.0 mi West 26.5 mph 33.4 mph 0.02 in   Overcast
5:01 PM 62.6 °F 57.2 °F 82% 29.66 in 10.0 mi West 28.8 mph 34.5 mph N/A   Overcast
5:53 PM 57.9 °F 54.0 °F 87% 29.71 in 10.0 mi West 29.9 mph 40.3 mph N/A   Overcast
6:37 PM 55.4 °F 51.8 °F 88% 29.75 in 10.0 mi West 26.5 mph 35.7 mph N/A   Overcast
6:53 PM 55.0 °F 52.0 °F 89% 29.76 in 10.0 mi West 23.0 mph 29.9 mph N/A   Overcast
7:53 PM 54.0 °F 50.0 °F 86% 29.80 in 10.0 mi WNW 24.2 mph 32.2 mph N/A   Overcast
8:53 PM 53.1 °F 48.9 °F 86% 29.82 in 10.0 mi WNW 19.6 mph 28.8 mph N/A   Overcast
9:53 PM 53.1 °F 48.9 °F 86% 29.85 in 10.0 mi West 16.1 mph - N/A   Overcast
10:25 PM 51.8 °F 48.2 °F 88% 29.86 in 10.0 mi West 12.7 mph - N/A   Scattered Clouds
10:53 PM 51.1 °F 46.9 °F 86% 29.87 in 10.0 mi West 11.5 mph - N/A   Scattered Clouds
11:03 PM 51.8 °F 46.4 °F 82% 29.87 in 10.0 mi West 10.4 mph - N/A   Mostly Cloudy
11:53 PM 50.0 °F 46.9 °F 89% 29.86 in 10.0 mi West 10.4 mph - N/A   Mostly Cloudy